Florence, SC

7:48 AM EST on January 24, 2018 (GMT -0500)
Florence Regional

Weather History for KFLO - June, 2014

Change the Weather History Date:

Thursday, June 19, 2014

  Actual Average Record
Temperature  
Mean Temperature 85 °F 79 °F  
Max Temperature 97 °F 89 °F 101 °F (1970)
Min Temperature 72 °F 69 °F 54 °F (1961)
Degree Days  
Heating Degree Days 0 0  
Month to date heating degree days 0 0  
Since 1 June heating degree days 0 0  
Since 1 July heating degree days 2669 2523  
Cooling Degree Days 20 14  
Month to date cooling degree days 293 233  
Year to date cooling degree days 675 540  
Since 1 June cooling degree days 293 233  
Growing Degree Days 34 (Base 50)    
Moisture  
Dew Point 68 °F    
Average Humidity 64    
Maximum Humidity 93    
Minimum Humidity 35    
Precipitation  
Precipitation 0.00 in 0.16 in 0.91 in (1960)
Month to date precipitation 0.16 2.98  
Year to date precipitation 17.52 18.34  
Sea Level Pressure  
Sea Level Pressure 30.07 in    
Wind  
Wind Speed 8 mph (SW)    
Max Wind Speed 15 mph    
Max Gust Speed 22 mph    
Visibility 10 miles    
Events      
T = Trace of Precipitation, MM = Missing Value Source: NWS Daily Summary

Daily Weather History Graph

Daily Weather History Graph

Search for Another Location

Airport or City:

Trip Planner

Search our weather history database for the weather conditions in past years. The results will help you decide how hot, cold, wet, or windy it might be!

Date:

Astronomy

Jun. 19, 2014 Rise Set
Actual Time 6:07 AM EDT 8:33 PM EDT
Civil Twilight 5:37 AM EDT 9:02 PM EDT
Nautical Twilight 5:01 AM EDT 9:38 PM EDT
Astronomical Twilight 4:22 AM EDT 10:18 PM EDT
Moon 12:52 AM EDT (6/19) 1:17 PM EDT (6/19)
Length of Visible Light 15h 24m
Length of Day
14h 26m
Waning Gibbous, 51% of the Moon is Illuminated
Jun 19
Waning Gibbous
Jun 19
Last Quarter
Jun 27
New
Jul 5
First Quarter
Jul 12
Full

Hourly Weather History & Observations

Time (EDT) Temp. Heat Index Dew Point Humidity Pressure Visibility Wind Dir Wind Speed Gust Speed Precip Events Conditions
12:53 AM 75.9 °F - 69.1 °F 79% 30.13 in 10.0 mi SSW 8.1 mph - N/A   Clear
1:53 AM 75.0 °F - 69.1 °F 82% 30.12 in 10.0 mi SW 5.8 mph - N/A   Clear
3:53 AM 73.0 °F - 69.1 °F 87% 30.10 in 10.0 mi WSW 5.8 mph - N/A   Clear
4:53 AM 73.0 °F - 69.1 °F 87% 30.09 in 10.0 mi SW 5.8 mph - N/A   Clear
6:53 AM 72.0 °F - 70.0 °F 93% 30.12 in 10.0 mi WSW 5.8 mph - N/A   Clear
7:53 AM 75.0 °F - 70.0 °F 84% 30.13 in 10.0 mi WSW 5.8 mph - N/A   Clear
8:53 AM 81.0 °F 84.4 °F 70.0 °F 69% 30.14 in 10.0 mi WSW 9.2 mph - N/A   Clear
9:53 AM 84.9 °F 88.8 °F 69.1 °F 59% 30.13 in 10.0 mi WSW 12.7 mph - N/A   Clear
11:53 AM 91.0 °F 96.6 °F 70.0 °F 50% 30.12 in 10.0 mi Variable 4.6 mph - N/A   Clear
12:53 PM 93.9 °F 98.6 °F 68.0 °F 43% 30.10 in 10.0 mi WSW 9.2 mph - N/A   Clear
1:53 PM 93.9 °F 97.5 °F 66.9 °F 41% 30.07 in 10.0 mi Variable 5.8 mph - N/A   Clear
2:53 PM 95.0 °F 99.0 °F 66.9 °F 40% 30.05 in 10.0 mi SSW 10.4 mph - N/A   Clear
3:53 PM 97.0 °F 101.0 °F 66.9 °F 37% 30.02 in 10.0 mi SSW 8.1 mph - N/A   Partly Cloudy
4:53 PM 96.1 °F 98.3 °F 64.0 °F 35% 30.01 in 10.0 mi SW 8.1 mph - N/A   Partly Cloudy
5:53 PM 96.1 °F 98.8 °F 64.9 °F 36% 30.00 in 10.0 mi WSW 10.4 mph - N/A   Clear
6:53 PM 93.0 °F 95.9 °F 66.0 °F 41% 29.99 in 10.0 mi SSW 12.7 mph - N/A   Clear
7:53 PM 89.1 °F 92.1 °F 66.9 °F 48% 30.01 in 10.0 mi SSW 8.1 mph - N/A   Clear
8:53 PM 87.1 °F 89.2 °F 66.0 °F 49% 30.02 in 10.0 mi SSW 6.9 mph - N/A   Clear
9:53 PM 86.0 °F 88.8 °F 66.9 °F 53% 30.02 in 10.0 mi SW 9.2 mph - N/A   Clear
10:53 PM 84.9 °F 87.1 °F 66.0 °F 53% 30.04 in 10.0 mi NW 6.9 mph - N/A   Clear
11:53 PM 82.0 °F 83.8 °F 64.9 °F 56% 30.05 in 10.0 mi ENE 4.6 mph - N/A   Clear